Regional Weather Roundup
Issued by NWS

Home | Current Version | Previous Version | Graphics & Text | Print | Product List | Glossary On
Versions: 1 2 3 4 5 6 7 8 9 10 11 12 13 14 15 16 17 18 19 20 21 22 23 24 25 26 27 28 29 30 31 32 33 34 35 36 37 38 39 40 41 42 43 44 45 46 47 48 49 50
000
ASUS43 KIND 301559
RWRIN

WEATHER ROUNDUP FOR INDIANA
NATIONAL WEATHER SERVICE INDIANAPOLIS IN
1100 AM EST FRI JAN 30 2015

NOTE: "FAIR" INDICATES FEW OR NO CLOUDS BELOW 12,000 FEET WITH NO
SIGNIFICANT WEATHER AND/OR OBSTRUCTIONS TO VISIBILITY.

* - STATION DOES NOT REPORT WEATHER SUCH AS PRECIPITATION OR FOG.

+ - STATION NOT QUALITY CONTROLLED BY THE NATIONAL WEATHER SERVICE.
    USE DATA WITH CAUTION...ESPECIALLY DEWPOINT AND RELATIVE
    HUMIDITY OBSERVATIONS.

INZ001>003-010>013-019-020-301700-
NORTHWEST INDIANA

CITY           SKY/WX    TMP DP  RH WIND       PRES   REMARKS
GARY /AIRPORT/ PTSUNNY   28  10  47 N12G23    30.52R WCI  18
VALPARAISO     CLOUDY    26  14  60 N9        30.50R WCI  17

$$

LMZ046-743>745-301700-
SOUTHERN LAKE MICHIGAN

STATION/POSITION TIME  TEMP WIND        PRES
                       AIR  DIR/SP/G
                 (UTC) (F)  (DEG/KT/KT) (MB)
MICHIGAN CITY    1500   25  340/ 17/ 20   N/A

$$

INZ004-005-014>016-021>024-301700-
NORTH CENTRAL INDIANA

CITY           SKY/WX    TMP DP  RH WIND       PRES   REMARKS
ELKHART        CLOUDY    21   9  58 N7        30.48R WCI  13
GOSHEN         CLOUDY    23  13  65 N15       30.48R WCI  10
SOUTH BEND     CLOUDY    25  15  66 NE7       30.49R WCI  17

$$

INZ006>009-017-018-025>027-301700-
NORTHEAST INDIANA

CITY           SKY/WX    TMP DP  RH WIND       PRES   REMARKS
ANGOLA *+      PTSUNNY   19   7  58 N9        30.44R WCI   9
FORT WAYNE     PTSUNNY   22  10  60 NW13      30.47R WCI  10

$$

INZ028-029-035-036-043>045-051>053-301700-
WEST CENTRAL INDIANA

CITY           SKY/WX    TMP DP  RH WIND       PRES   REMARKS
GREENCASTLE +  MOSUNNY   30  10  43 N13       30.50R WCI  20
LAFAYETTE      PTSUNNY   27  15  61 N10       30.52R WCI  17
TERRE HAUTE    SUNNY     31  17  56 NE8       30.52R WCI  23

$$

INZ030>032-037>040-046>048-054>057-064-065-301700-
CENTRAL INDIANA

CITY           SKY/WX    TMP DP  RH WIND       PRES   REMARKS
ANDERSON       CLOUDY    25  16  68 N12G23    30.48R WCI  14
COLUMBUS       PTSUNNY   28  14  54 N14       30.49R WCI  17
INDIANAPOLIS   PTSUNNY   26  16  65 N12       30.49R WCI  16
-EAGLE CREEK   CLOUDY    27  16  63 N12       30.48R WCI  17
KOKOMO *+      CLOUDY    27  16  63 N14       30.48R WCI  15
MT COMFORT *+  CLOUDY    28   9  43 N16G22    30.48R WCI  17
SHELBYVILLE    CLOUDY    29  15  56 N17       30.48R WCI  17

$$

INZ033-034-041-042-049-050-058-059-301700-
EAST CENTRAL INDIANA

CITY           SKY/WX    TMP DP  RH WIND       PRES   REMARKS
MUNCIE         CLOUDY    25  16  68 N17       30.47R WCI  12

$$

INZ060-061-067>069-081>083-085>088-301700-
SOUTHWEST INDIANA

CITY           SKY/WX    TMP DP  RH WIND       PRES   REMARKS
EVANSVILLE     MOSUNNY   37  24  59 N9        30.53R
HUNTINGBURG *+ SUNNY     34  21  60 N14       30.51R WCI  24

$$

INZ062-063-066-070>080-084-089>092-301700-
SOUTH CENTRAL AND SOUTHEAST INDIANA

CITY           SKY/WX    TMP DP  RH WIND       PRES   REMARKS
BLOOMINGTON    SUNNY     31  15  52 N14G20    30.48R WCI  21
SEYMOUR +      CLOUDY    34  18  51 N15       30.49R WCI  24

$$




USA.gov is the U.S. government's official web portal to all federal, state and local government web resources and services.